[[{"header":{"parameterUnit":"m.s-1","parameterCategory":1,"la1":30.2991,"la2":30.254,"lo1":-89.0895,"lo2":-89.0444,"dy":0.0017,"dx":0.0017,"nx":28,"ny":28,"refTime":"2025-04-27T03:00:00:Z","depth":0,"parameterNumber":2,"parameterNumberName":"U-component_of_WINDS"},"data":[0,0,0,0,0,0,0,0,0,0,0,0,0,0,0,0,0,0,0,0,0,0,0,0,0,0,0,0,0,0,0,0,0,0,0,0,0,0,0,0,0,0,0,0,0,0,0,0,0,0,0,0,0,0,0,0,0,0,1.7088,1.7089,0,1.7196,1.7197,1.7199,1.7197,1.7195,1.7194,1.7192,1.7305,1.7309,1.7313,0,0,0,0,0,0,0,0,0,0,0,0,0,1.688,1.6884,1.7088,1.709,1.7091,1.7196,1.7197,1.7199,1.7197,1.7195,1.7193,1.7192,1.7303,1.7308,1.7314,0,0,0,0,0,0,0,0,0,0,0,0,0,1.6978,1.6886,1.7088,1.7102,1.7105,1.7196,1.7198,1.7199,1.7197,1.7195,1.7193,1.7191,1.7302,1.7308,1.7314,1.7399,0,0,1.7334,1.7337,0,0,0,0,0,0,0,0,1.6972,1.6985,1.7099,1.7102,1.7104,1.7181,1.7165,1.7266,1.7198,1.7162,1.7192,1.719,1.7265,1.7275,1.73,1.7404,1.7409,1.7335,1.7339,1.7342,1.7343,0,0,0,0,0,0,0,1.6966,1.6981,1.7131,1.7101,1.7104,1.7104,1.7115,1.7185,1.7225,1.7165,1.7165,1.7178,1.7266,1.7293,1.7302,1.741,1.7335,1.734,1.7345,1.7347,1.7586,1.7588,0,0,0,0,0,0,1.6956,1.6975,1.7128,1.7134,1.7032,1.7109,1.7122,1.7158,1.7224,1.7232,1.718,1.7177,1.7283,1.7295,1.7306,1.7407,1.7342,1.7348,1.7351,1.7584,1.7587,1.7589,0,0,0,0,0,0,1.6951,1.6969,1.7123,1.7055,1.7074,1.7115,1.7156,1.7162,1.7189,1.7235,1.7242,1.72,1.7282,1.7297,1.7375,1.7411,1.7351,1.7357,1.7581,1.7585,1.7588,1.7611,0,0,0,0,0,0,1.6945,1.6968,1.7,1.7056,1.7078,1.719,1.7158,1.7165,1.72,1.7198,1.7256,1.7263,1.7282,1.7365,1.7381,1.7419,1.7362,1.7578,1.7583,1.7587,1.7607,1.7615,1.7621,0,0,0,0,0,1.6938,1.7003,1.7002,1.702,1.7119,1.7192,1.7205,1.7224,1.7203,1.7235,1.7265,1.7262,1.7405,1.7373,1.7391,1.7432,1.7576,1.7581,1.7587,1.7604,1.7613,1.7621,0,0,0,0,0,0,1.6952,1.7011,1.701,1.7095,1.7138,1.7191,1.7233,1.7234,1.7285,1.7281,1.7303,1.7316,1.7393,1.742,1.7384,1.7515,1.7488,1.7497,1.7494,1.7504,1.7511,1.7502,1.7367,0,0,0,0,0,1.6965,1.7019,1.7067,1.7138,1.7159,1.7193,1.7225,1.7236,1.7282,1.73,1.7336,1.7381,1.7436,1.7472,1.7525,1.7611,1.7623,1.7648,1.7655,1.7661,1.7668,1.7713,1.7724,1.7607,1.7607,1.7607,0,0,1.6993,1.7031,1.7064,1.7142,1.7176,1.7231,1.7208,1.7268,1.7309,1.731,1.7384,1.7412,1.7464,1.7545,1.7583,1.757,1.7703,1.7668,1.7672,1.7676,1.772,1.7731,1.7741,1.7611,1.761,1.761,0,0,1.707,1.7106,1.7167,1.7202,1.7254,1.7276,1.729,1.7343,1.7361,1.7436,1.7437,1.7486,1.7581,1.7617,1.7648,1.7737,1.7736,1.7754,1.7792,1.7836,1.7845,1.7853,1.7883,1.7894,1.7762,1.7762,1.7762,0,1.7098,1.718,1.7199,1.7258,1.7291,1.7293,1.7355,1.7389,1.7456,1.7479,1.7464,1.7581,1.7617,1.7705,1.7727,1.7753,1.7769,1.7747,1.7842,1.7851,1.7858,1.7887,1.7899,1.7764,1.7764,1.7763,1.7763,0,1.721,1.7267,1.7311,1.7374,1.7413,1.7473,1.75,1.7537,1.7544,1.7567,1.7642,1.7685,1.7745,1.7768,1.7776,1.7857,1.7848,1.7837,1.781,1.7871,1.7898,1.791,1.7766,1.7766,1.7765,1.7765,0,0,1.73,1.7372,1.7387,1.7415,1.7472,1.7517,1.7577,1.7635,1.7665,1.7712,1.7762,1.7841,1.7831,1.7866,1.7878,1.7917,1.7982,1.7902,1.7903,1.7913,1.8072,1.8078,1.8091,1.7982,1.7984,1.7986,1.8067,0,1.7382,1.7487,1.7505,1.7597,1.7649,1.7652,1.7704,1.7744,1.7767,1.7814,1.784,1.7895,1.7878,1.7899,1.7938,1.7966,1.8014,1.7961,1.8028,1.803,1.8013,1.8105,1.8113,1.8187,1.8078,1.808,1.8081,0,1.7492,1.7539,1.7636,1.7684,1.7707,1.7753,1.7807,1.7853,1.7898,1.7912,1.795,1.7957,1.8019,1.7989,1.8074,1.8037,1.8065,1.8083,1.8087,1.8092,1.8058,1.8112,1.8212,1.8222,1.8099,1.8097,1.8096,0,1.7545,1.7633,1.7702,1.7726,1.7785,1.7817,1.7843,1.7886,1.792,1.7967,1.7989,1.8043,1.8073,1.8114,1.8136,1.8113,1.8218,1.8191,1.823,1.823,1.8251,1.8249,1.8355,1.8273,1.8273,1.8272,1.8272,0,1.7633,1.7692,1.7726,1.7768,1.7834,1.7853,1.7918,1.7943,1.7981,1.8028,1.8035,1.8079,1.8105,1.8153,1.817,1.8236,1.825,1.8262,1.8266,1.8261,1.8259,1.8279,1.8273,1.8275,1.8275,1.8274,1.8274,0,1.7703,1.7728,1.7803,1.7852,1.7866,1.7911,1.7953,1.7994,1.8016,1.8075,1.809,1.8125,1.8181,1.8207,1.8277,1.8289,1.8363,1.8364,1.8347,1.8348,1.8385,1.8381,1.8506,1.8523,1.8431,1.8432,1.8432,0,1.7757,1.7802,1.7855,1.7886,1.7913,1.7964,1.7997,1.8018,1.8052,1.8107,1.8141,1.8197,1.8243,1.8332,1.8364,1.8417,1.8418,1.8458,1.8426,1.8419,1.8416,1.8412,1.8416,1.8464,1.8465,1.8465,1.8466,0,1.785,1.7859,1.7907,1.7958,1.7998,1.804,1.8081,1.8106,1.8134,1.8172,1.8229,1.8264,1.8334,1.8389,1.8444,1.8471,1.8473,1.8476,1.8488,1.8482,1.8469,1.8474,1.8361,1.8473,1.8472,1.8472,1.8471,1.8471,1.7912,1.7951,1.7994,1.8046,1.8079,1.8116,1.8156,1.8183,1.823,1.8288,1.8298,1.8358,1.8401,1.8475,1.8503,1.855,1.8541,1.8558,1.8562,1.8566,1.8567,1.8463,1.8561,1.8561,1.856,1.856,1.856,0,1.8003,1.803,1.8078,1.8134,1.8175,1.8172,1.8217,1.8251,1.8304,1.8344,1.8388,1.8452,1.8505,1.8541,1.8594,1.8625,1.8627,1.8638,1.8635,1.8641,1.8573,1.8557,1.8635,1.8635,1.8635,1.8635,1.8635,1.8635,1.8055,1.812,1.8134,1.8215,1.8243,1.83,1.8326,1.836,1.8392,1.8463,1.8507,1.8529,1.8567,1.8623,1.8671,1.868,1.8699,1.871,1.8718,1.8654,1.8646,1.8638,1.8623,1.8714,1.8714,1.8782,1.8782,1.8783]},{"header":{"parameterUnit":"m.s-1","parameterCategory":1,"la1":30.2991,"la2":30.254,"lo1":-89.0895,"lo2":-89.0444,"dy":0.0017,"dx":0.0017,"nx":28,"ny":28,"refTime":"2025-04-27T03:00:00:Z","depth":0,"parameterNumber":3,"parameterNumberName":"V-component_of_WINDS"},"data":[0,0,0,0,0,0,0,0,0,0,0,0,0,0,0,0,0,0,0,0,0,0,0,0,0,0,0,0,0,0,0,0,0,0,0,0,0,0,0,0,0,0,0,0,0,0,0,0,0,0,0,0,0,0,0,0,0,0,2.9806,2.9807,0,2.9845,2.9846,2.9846,2.9811,2.981,2.9809,2.9807,2.9843,2.9845,2.9847,0,0,0,0,0,0,0,0,0,0,0,0,0,2.9696,2.9699,2.9806,2.9807,2.9807,2.9845,2.9846,2.9846,2.9812,2.981,2.9808,2.9807,2.9842,2.9845,2.9847,0,0,0,0,0,0,0,0,0,0,0,0,0,2.9741,2.9699,2.9806,2.9795,2.9794,2.9845,2.9846,2.9847,2.9812,2.981,2.9808,2.9806,2.9841,2.9844,2.9848,2.9911,0,0,2.9858,2.9859,0,0,0,0,0,0,0,0,2.9738,2.9745,2.9796,2.9796,2.9795,2.9822,2.982,2.9868,2.9813,2.9805,2.9807,2.9805,2.9837,2.9841,2.9852,2.9912,2.9914,2.9858,2.986,2.9862,2.9863,0,0,0,0,0,0,0,2.9735,2.9743,2.9822,2.9797,2.9796,2.9786,2.979,2.9829,2.9832,2.9806,2.9803,2.9808,2.9836,2.9849,2.9853,2.9914,2.9858,2.9861,2.9863,2.9865,3.0026,3.0029,0,0,0,0,0,0,2.9734,2.9741,2.982,2.9823,2.9761,2.979,2.9794,2.9815,2.9832,2.9832,2.981,2.9807,2.9844,2.9849,2.9854,2.9928,2.9862,2.9865,2.9867,3.0024,3.0027,3.0029,0,0,0,0,0,0,2.9732,2.9742,2.9819,2.9781,2.979,2.9794,2.9818,2.9817,2.983,2.9835,2.9835,2.9823,2.9843,2.9849,2.9897,2.9929,2.9866,2.9869,3.0022,3.0025,3.0028,3.0077,0,0,0,0,0,0,2.9729,2.9741,2.9766,2.9782,2.9792,2.9863,2.982,2.9819,2.9836,2.9832,2.9847,2.9848,2.9842,2.9892,2.99,2.9932,2.9872,3.0019,3.0023,3.0027,3.0072,3.0081,3.0089,0,0,0,0,0,2.9725,2.9778,2.9768,2.9778,2.9824,2.9865,2.987,2.9864,2.9839,2.9863,2.9867,2.9847,2.9924,2.9897,2.9906,2.994,3.0017,3.0022,3.0027,3.0069,3.008,3.0089,0,0,0,0,0,0,2.9764,2.978,2.9769,2.9828,2.9846,2.9859,2.9889,2.9876,2.9899,2.9894,2.9883,2.9887,2.9937,2.9943,2.9913,3.0001,2.9966,2.9973,2.9995,3.0005,3.0014,3.001,2.9875,0,0,0,0,0,2.978,2.9813,2.9824,2.9876,2.9885,2.9886,2.9903,2.9897,2.9913,2.992,2.9927,2.9943,2.997,2.9988,3.0014,3.0073,3.0075,3.0101,3.0109,3.0116,3.0122,3.0152,3.0163,3.0046,3.0046,3.0046,0,0,2.9812,2.9825,2.9846,2.9884,2.9896,2.9929,2.9892,2.9929,2.9952,2.9925,2.997,2.9976,2.9993,3.0046,3.007,3.0053,3.0155,3.0123,3.0128,3.013,3.0159,3.017,3.018,3.005,3.0049,3.0049,0,0,2.9888,2.9902,2.9946,2.9959,2.9979,2.9979,2.999,3.0005,3.0008,3.0054,3.0034,3.0061,3.0109,3.0122,3.0134,3.0214,3.0196,3.0223,3.0266,3.0296,3.0305,3.0313,3.034,3.035,3.0229,3.0229,3.0229,0,2.9925,2.9976,2.9969,3.0007,3.0023,3.0002,3.0045,3.0058,3.0085,3.0096,3.0077,3.0136,3.0146,3.0201,3.0221,3.0232,3.0242,3.022,3.0305,3.0313,3.032,3.0346,3.0356,3.0232,3.0232,3.0231,3.0231,0,3.0019,3.0054,3.0087,3.0115,3.0135,3.0175,3.0173,3.0194,3.0186,3.0188,3.0233,3.0245,3.0272,3.0284,3.0276,3.0338,3.0327,3.0307,3.0271,3.0334,3.0358,3.0368,3.0236,3.0235,3.0234,3.0233,0,0,3.012,3.0144,3.0156,3.0168,3.0189,3.0214,3.0253,3.0281,3.0298,3.0317,3.0348,3.0389,3.037,3.0384,3.0377,3.0404,3.0464,3.038,3.038,3.0394,3.0532,3.0546,3.0558,3.0454,3.0455,3.0457,3.053,0,3.0195,3.0264,3.0259,3.0323,3.0354,3.0334,3.0368,3.0383,3.0386,3.0411,3.0413,3.0442,3.0416,3.0424,3.0449,3.0452,3.0492,3.0447,3.048,3.0481,3.0475,3.057,3.0586,3.0654,3.0539,3.0541,3.0542,0,3.0292,3.0316,3.0384,3.0398,3.0411,3.0442,3.0466,3.0491,3.0507,3.0507,3.0524,3.0512,3.0549,3.0514,3.0564,3.0533,3.0546,3.055,3.0552,3.0554,3.0515,3.0573,3.0676,3.0686,3.0557,3.0556,3.0555,0,3.0357,3.0406,3.0452,3.0463,3.0482,3.0503,3.0512,3.0526,3.0543,3.0564,3.0574,3.0599,3.0612,3.0631,3.0625,3.0601,3.0676,3.0641,3.0675,3.0675,3.0691,3.0689,3.0796,3.0702,3.0702,3.0702,3.0701,0,3.0441,3.0482,3.0481,3.051,3.0555,3.0549,3.0593,3.0599,3.0612,3.064,3.0624,3.065,3.0642,3.0667,3.0663,3.0704,3.071,3.071,3.0708,3.071,3.071,3.0718,3.0712,3.0704,3.0704,3.0703,3.0703,0,3.052,3.0521,3.057,3.0585,3.0589,3.0622,3.0633,3.0659,3.066,3.0696,3.0703,3.0705,3.0734,3.0731,3.0763,3.076,3.081,3.0804,3.0805,3.0803,3.0837,3.0833,3.0951,3.0965,3.0864,3.0865,3.0865,0,3.0573,3.0604,3.0622,3.064,3.0651,3.068,3.0697,3.0692,3.071,3.0731,3.0754,3.0781,3.0803,3.085,3.0853,3.0877,3.0869,3.0909,3.0873,3.0874,3.0868,3.0866,3.0868,3.0915,3.0917,3.0918,3.0918,0,3.0665,3.0664,3.0691,3.0717,3.0738,3.0759,3.0777,3.0792,3.0788,3.0809,3.0839,3.0856,3.0889,3.0916,3.0939,3.0946,3.0931,3.093,3.0939,3.0941,3.094,3.0939,3.0823,3.0927,3.0926,3.0925,3.0925,3.0925,3.0732,3.0758,3.0775,3.0805,3.0818,3.0836,3.086,3.0865,3.0891,3.0918,3.0913,3.0946,3.096,3.0989,3.0999,3.1024,3.1009,3.1022,3.1025,3.1028,3.1032,3.0938,3.1028,3.1028,3.1027,3.1027,3.1027,0,3.0822,3.0832,3.0859,3.0886,3.0909,3.0895,3.0914,3.0933,3.0963,3.0979,3.1001,3.1034,3.106,3.1066,3.109,3.1109,3.1102,3.1115,3.1113,3.1114,3.1044,3.1033,3.112,3.112,3.112,3.112,3.112,3.112,3.0872,3.0916,3.0917,3.0967,3.0976,3.101,3.1022,3.1037,3.1049,3.1088,3.111,3.1114,3.1125,3.115,3.1172,3.1173,3.1182,3.1197,3.1195,3.1129,3.112,3.1111,3.11,3.12,3.12,3.1263,3.1264,3.1264]}]]